Home   Weather   Hamilton   Past weeks

Flag for Bermuda Past Weather in Hamilton, Bermuda — Yesterday and Last 2 Weeks

Now
81 °F

Passing clouds.


Feels Like: 85 °F
Forecast: 78 / 82 °F
Wind: 15 mph from Southwest

Location: Bermuda

Current Time: Jul 28, 2017 at 3:50:55 am

Latest Report: Jul 28, 2017 at 2:55 am


Visibility: N/A

Pressure: 29.95 "Hg

Humidity: 79%

Dew Point: 73 °F

Location of HamiltonLocation

Past Weather in Hamilton — Graph

°F

Hamilton Temperature Yesterday

Maximum temperature yesterday: 84 °F (at 8:55 am)
Minimum temperature yesterday: 77 °F (at 3:55 am)
Average temperature yesterday: 81 °F

High & Low Weather Summary for the Past Weeks

 TemperatureHumidityPressure
High88 °F (Jul 23, 3:55 pm)89% (Jul 17, 6:36 am)30.30 "Hg (Jul 17, 6:36 am)
Low75 °F (Jul 17, 6:36 am)55% (Jul 15, 2:55 pm)29.95 "Hg (Jul 28, 12:57 am)
Average82 °F76%30.17 "Hg
* Reported Jul 13 1:55 am — Jul 28 1:55 am, Hamilton. Weather by CustomWeather, © 2017

Note: Actual official high and low records may vary slightly from our data, if they occured in-between our weather recording intervals... More about our weather records

Advertising

Hamilton Weather History for the Previous 24 Hours

Scroll right to see more
 ConditionsComfort  
Time TempWeatherWind HumidityBarometerVisibility
1:55 am
Fri, Jul 28
81 °FPassing clouds.15 mph79%29.95 "HgN/A
12:57 am81 °FPassing clouds.15 mph79%29.95 "HgN/A
11:55 pm
Thu, Jul 27
81 °FPassing clouds.13 mph79%29.98 "HgN/A
10:55 pm81 °FPassing clouds.13 mph74%29.98 "HgN/A
9:55 pm81 °FPassing clouds.10 mph74%29.98 "HgN/A
8:55 pm81 °FPartly cloudy.8 mph74%29.98 "HgN/A
7:55 pm82 °FBroken clouds.3 mph70%29.98 "HgN/A
6:55 pm81 °FPartly sunny.6 mph74%29.98 "HgN/A
5:55 pm82 °FBroken clouds.6 mph70%29.98 "HgN/A
4:55 pm82 °FBroken clouds.7 mph70%29.98 "HgN/A
3:55 pm82 °FScattered showers. Broken clouds.8 mph70%30.01 "HgN/A
2:55 pm81 °FSprinkles. Partly sunny.6 mph84%30.01 "HgN/A
2:34 pm81 °FSprinkles. Partly sunny.5 mph84%30.01 "HgN/A
1:55 pm79 °FThunderstorms. Broken clouds.10 mph84%30.01 "HgN/A
1:35 pm81 °FThunderstorms. Cloudy.13 mph79%30.01 "HgN/A
1:07 pm81 °FRain. Partly sunny.20 mph79%30.01 "HgN/A
11:55 am84 °FThunderstorms. Broken clouds.14 mph74%30.01 "HgN/A
10:55 am84 °FScattered clouds.16 mph74%30.04 "HgN/A
9:55 am84 °FScattered clouds.15 mph74%30.04 "HgN/A
8:55 am84 °FScattered showers. Broken clouds.16 mph70%30.04 "HgN/A
7:55 am82 °FPartly sunny.15 mph74%30.04 "HgN/A
6:55 am81 °FScattered showers. Partly sunny.14 mph79%30.04 "HgN/A
5:55 am79 °FPassing clouds.8 mph89%30.01 "HgN/A
4:55 am79 °FPassing clouds.7 mph84%30.01 "HgN/A
3:55 am77 °FSprinkles. Partly cloudy.5 mph89%30.04 "HgN/A
Weather by CustomWeather, © 2017

See weather overviewHow to use our weather pages